Location: Kershaw
(34.5481°N, 80.5823°W)
Time: 16:01:42
(UTC+00:00)

Vanguard 1 Rocket - Pass Details

Date: 03 October 2022
Orbit: 650 x 4225 km, 34.3° (Epoch: 08 December)

Event Time Altitude Azimuth Distance (km) Brightness Sun altitude
Rises 20:30:28 0° 194° (SSW) 8,190 12.8 29.2°
Reaches altitude 10° 20:38:13 10° 182° (S) 7,378 12.5 27.8°
Maximum altitude 20:56:06 24° 138° (SE) 6,009 11.5 24.5°
Drops below altitude 10° 21:10:56 10° 94° (E) 6,216 11.2 21.7°
Sets 21:16:22 0° 82° (E) 6,726 11.2 20.7°
